When you browse on this site, cookies collect data to enhance your experience and personalize the content and advertising you see.
Visit our Privacy Policy to learn more. By continuing to use the site, you agree to this use of cookies and data.
  • In Sweden
  • List of Countries
  • For 7 days
  • Water Temperature
  • Weather Map
  • Weather Widgets
  • user-avatar
    Login

    Hourly Weather Hajdúdorog

    Today, 26 February, Wednesday

    Time Temperature Precipitation Wind Pressure Humidity
    00:00 +8°C° 0 mm 4 mps 743 mmHg 84%
    01:00 +7°C° 0 mm 4 mps 742 mmHg 86%
    02:00 +7°C° 0 mm 4 mps 742 mmHg 87%
    03:00 +7°C° 0 mm 4 mps 741 mmHg 88%
    04:00 +7°C° 0 mm 4 mps 740 mmHg 89%
    05:00 +7°C° 1 mm 4 mps 740 mmHg 91%
    06:00 +8°C° 1 mm 3 mps 740 mmHg 93%
    07:00 +8°C° 1 mm 3 mps 739 mmHg 96%
    08:00 +8°C° 0.8 mm 3 mps 739 mmHg 94%
    09:00 +8°C° 0.8 mm 3 mps 739 mmHg 92%
    10:00 +8°C° 0.8 mm 3 mps 738 mmHg 90%
    11:00 +8°C° 0.1 mm 3 mps 738 mmHg 86%
    12:00 +7°C° 0.1 mm 4 mps 738 mmHg 82%
    13:00 +8°C° 0.1 mm 4 mps 737 mmHg 78%
    14:00 +8°C° 0.1 mm 4 mps 737 mmHg 77%
    15:00 +9°C° 0.1 mm 3 mps 737 mmHg 75%
    16:00 +9°C° 0.1 mm 3 mps 737 mmHg 74%
    17:00 +8°C° 0.1 mm 3 mps 737 mmHg 77%
    18:00 +7°C° 0.1 mm 3 mps 738 mmHg 80%
    19:00 +6°C° 0.1 mm 2 mps 738 mmHg 84%
    20:00 +5°C° 0.1 mm 3 mps 738 mmHg 83%
    21:00 +4°C° 0.1 mm 4 mps 739 mmHg 82%
    22:00 +4°C° 0.1 mm 4 mps 739 mmHg 82%
    23:00 +4°C° 0.1 mm 3 mps 739 mmHg 81%

    Tomorrow, 27 February, Thursday

    Time Temperature Precipitation Wind Pressure Humidity
    00:00 +5°C° 0.1 mm 2 mps 740 mmHg 81%
    01:00 +5°C° 0.1 mm 2 mps 740 mmHg 80%
    02:00 +4°C° 0 mm 2 mps 740 mmHg 81%
    03:00 +4°C° 0 mm 2 mps 740 mmHg 82%
    04:00 +3°C° 0 mm 2 mps 740 mmHg 83%
    05:00 +3°C° 0 mm 2 mps 741 mmHg 83%
    06:00 +2°C° 0 mm 3 mps 742 mmHg 82%
    07:00 +2°C° 0 mm 3 mps 742 mmHg 82%
    08:00 +3°C° 0 mm 3 mps 743 mmHg 76%
    09:00 +4°C° 0 mm 3 mps 744 mmHg 70%
    10:00 +5°C° 0 mm 3 mps 744 mmHg 63%
    11:00 +7°C° 0 mm 3 mps 744 mmHg 58%
    12:00 +7°C° 0 mm 4 mps 745 mmHg 53%
    13:00 +7°C° 0 mm 4 mps 745 mmHg 47%
    14:00 +7°C° 0 mm 4 mps 745 mmHg 48%
    15:00 +7°C° 0 mm 4 mps 745 mmHg 48%
    16:00 +7°C° 0 mm 4 mps 745 mmHg 48%
    17:00 +6°C° 0 mm 4 mps 745 mmHg 54%
    18:00 +5°C° 0 mm 4 mps 746 mmHg 60%
    19:00 +3°C° 0 mm 4 mps 746 mmHg 65%
    20:00 +3°C° 0 mm 4 mps 746 mmHg 68%
    21:00 +1°C° 0 mm 4 mps 746 mmHg 71%
    22:00 +2°C° 0 mm 3 mps 745 mmHg 74%
    23:00 +1°C° 0 mm 4 mps 745 mmHg 73%

    Day after tomorrow, 28 February, Friday

    Time Temperature Precipitation Wind Pressure Humidity
    00:00 +1°C° 0 mm 5 mps 744 mmHg 71%
    01:00 +1°C° 0 mm 6 mps 743 mmHg 70%
    02:00 0°C° 0.6 mm 7 mps 743 mmHg 78%
    03:00 -1°C° 0.6 mm 8 mps 742 mmHg 87%
    04:00 -1°C° 0.6 mm 9 mps 742 mmHg 95%
    05:00 -1°C° 0.3 mm 9 mps 741 mmHg 93%
    06:00 0°C° 0.3 mm 8 mps 741 mmHg 92%
    07:00 0°C° 0.3 mm 8 mps 741 mmHg 90%
    08:00 +1°C° 0.9 mm 8 mps 741 mmHg 86%
    09:00 +2°C° 0.9 mm 7 mps 741 mmHg 82%
    10:00 +2°C° 0.9 mm 7 mps 741 mmHg 79%
    11:00 +3°C° 0.1 mm 7 mps 741 mmHg 76%
    12:00 +3°C° 0.1 mm 7 mps 742 mmHg 74%
    13:00 +4°C° 0.1 mm 7 mps 743 mmHg 72%
    14:00 +4°C° 0.1 mm 7 mps 743 mmHg 70%
    15:00 +4°C° 0.1 mm 6 mps 744 mmHg 68%
    16:00 +4°C° 0.1 mm 6 mps 745 mmHg 65%
    17:00 +3°C° 0 mm 5 mps 747 mmHg 67%
    18:00 +3°C° 0 mm 5 mps 748 mmHg 68%
    19:00 +3°C° 0 mm 4 mps 749 mmHg 70%
    20:00 +1°C° 0 mm 4 mps 750 mmHg 71%
    21:00 +2°C° 0 mm 3 mps 751 mmHg 72%
    22:00 +1°C° 0 mm 3 mps 752 mmHg 73%
    23:00 +1°C° 0 mm 3 mps 752 mmHg 75%

    29 February, Saturday

    Time Temperature Precipitation Wind Pressure Humidity
    00:00 0°C° 0 mm 3 mps 753 mmHg 76%
    01:00 +1°C° 0 mm 2 mps 753 mmHg 78%
    02:00 +1°C° 0 mm 2 mps 753 mmHg 79%
    03:00 -1°C° 0 mm 2 mps 753 mmHg 80%
    04:00 +1°C° 0 mm 1 mps 753 mmHg 81%
    05:00 +1°C° 0 mm 1 mps 754 mmHg 81%
    06:00 +1°C° 0 mm 1 mps 754 mmHg 81%
    07:00 +1°C° 0 mm 1 mps 754 mmHg 81%
    08:00 +2°C° 0 mm 2 mps 754 mmHg 75%
    09:00 +3°C° 0 mm 2 mps 754 mmHg 70%
    10:00 +3°C° 0 mm 3 mps 754 mmHg 64%
    11:00 +4°C° 0 mm 3 mps 754 mmHg 61%
    12:00 +5°C° 0 mm 3 mps 753 mmHg 58%
    13:00 +6°C° 0 mm 4 mps 753 mmHg 55%
    14:00 +6°C° 0 mm 4 mps 753 mmHg 56%
    15:00 +6°C° 0 mm 4 mps 752 mmHg 57%
    16:00 +6°C° 0 mm 4 mps 752 mmHg 58%
    17:00 +5°C° 0 mm 4 mps 752 mmHg 62%
    18:00 +4°C° 0 mm 4 mps 752 mmHg 66%
    19:00 +2°C° 0 mm 5 mps 752 mmHg 70%
    20:00 +2°C° 0 mm 5 mps 752 mmHg 69%
    21:00 +2°C° 0 mm 5 mps 752 mmHg 68%
    22:00 +2°C° 0 mm 5 mps 752 mmHg 68%
    23:00 +2°C° 0 mm 5 mps 751 mmHg 68%

    1 March, Sunday

    Time Temperature Precipitation Wind Pressure Humidity
    00:00 +2°C° 0 mm 5 mps 751 mmHg 68%
    01:00 +3°C° 0 mm 4 mps 751 mmHg 68%
    02:00 +3°C° 0 mm 4 mps 750 mmHg 68%
    03:00 +1°C° 0 mm 4 mps 750 mmHg 68%
    04:00 +1°C° 0 mm 4 mps 750 mmHg 68%
    05:00 +1°C° 0 mm 4 mps 749 mmHg 68%
    06:00 +3°C° 0 mm 4 mps 749 mmHg 68%
    07:00 +3°C° 0 mm 4 mps 749 mmHg 67%
    08:00 +3°C° 0.2 mm 3 mps 749 mmHg 71%
    09:00 +3°C° 0.2 mm 3 mps 749 mmHg 75%
    10:00 +3°C° 0.2 mm 3 mps 749 mmHg 79%
    11:00 +3°C° 0.6 mm 4 mps 749 mmHg 82%
    12:00 +4°C° 0.6 mm 4 mps 748 mmHg 86%
    13:00 +4°C° 0.6 mm 4 mps 748 mmHg 89%
    14:00 +4°C° 0.1 mm 4 mps 748 mmHg 88%
    15:00 +5°C° 0.1 mm 4 mps 748 mmHg 88%
    16:00 +5°C° 0.1 mm 4 mps 748 mmHg 87%
    17:00 +5°C° 0 mm 3 mps 748 mmHg 89%
    18:00 +5°C° 0 mm 3 mps 748 mmHg 90%
    19:00 +5°C° 0 mm 3 mps 748 mmHg 91%
    20:00 +6°C° 0.2 mm 2 mps 748 mmHg 92%
    21:00 +5°C° 0.2 mm 2 mps 748 mmHg 94%
    22:00 +5°C° 0.2 mm 2 mps 747 mmHg 95%
    23:00 +5°C° 0.7 mm 2 mps 747 mmHg 95%

    2 March, Monday

    Time Temperature Precipitation Wind Pressure Humidity
    00:00 +5°C° 0.7 mm 2 mps 747 mmHg 96%
    01:00 +5°C° 0.7 mm 2 mps 746 mmHg 96%
    02:00 +5°C° 1.8 mm 2 mps 746 mmHg 96%
    03:00 +5°C° 1.8 mm 2 mps 746 mmHg 97%
    04:00 +5°C° 1.8 mm 2 mps 745 mmHg 98%
    05:00 +5°C° 0.8 mm 2 mps 745 mmHg 98%
    06:00 +5°C° 0.8 mm 2 mps 745 mmHg 98%
    07:00 +5°C° 0.8 mm 2 mps 745 mmHg 98%
    08:00 +6°C° 0.3 mm 2 mps 745 mmHg 97%
    09:00 +6°C° 0.3 mm 2 mps 746 mmHg 96%
    10:00 +6°C° 0.3 mm 2 mps 746 mmHg 95%
    11:00 +6°C° 0.1 mm 2 mps 746 mmHg 94%
    12:00 +6°C° 0.1 mm 2 mps 746 mmHg 93%
    13:00 +6°C° 0.1 mm 2 mps 745 mmHg 92%
    14:00 +8°C° 0.1 mm 1 mps 745 mmHg 91%
    15:00 +8°C° 0.1 mm 1 mps 745 mmHg 90%
    16:00 +8°C° 0.1 mm 1 mps 746 mmHg 90%
    17:00 +7°C° 0 mm 1 mps 746 mmHg 90%
    18:00 +7°C° 0 mm 1 mps 746 mmHg 91%
    19:00 +6°C° 0 mm 0 mps 746 mmHg 92%
    20:00 +6°C° 0 mm 1 mps 746 mmHg 92%
    21:00 +6°C° 0 mm 1 mps 747 mmHg 91%
    22:00 +6°C° 0 mm 1 mps 747 mmHg 91%
    23:00 +5°C° 0 mm 1 mps 747 mmHg 91%
    Show more